Regional Weather Roundup
Issued by NWS

Home | Current Version | Previous Version | Text Only | Print | Product List | Glossary Off
Versions: 1 2 3 4 5 6 7 8 9 10 11 12 13 14 15 16 17 18 19 20 21 22 23 24 25 26 27 28 29 30 31 32 33 34 35 36 37 38 39 40 41 42 43 44 45 46 47 48 49 50

251
ASUS43 KTOP 221208
RWRKS

WEATHER ROUNDUP FOR KANSAS
NATIONAL WEATHER SERVICE GOODLAND KS
700 AM CDT THU JUN 22 2017

NOTE:  "FAIR" INDICATES FEW OR NO CLOUDS BELOW 12,000 FEET WITH NO
SIGNIFICANT WEATHER AND/OR OBSTRUCTIONS TO VISIBILITY.

KSZ001>006-013>018-027>032-041>047-221300-
NORTHWEST KANSAS

CITY           SKY/WX    TMP DP  RH WIND       PRES   REMARKS
GOODLAND       CLEAR     72  54  53 SW20G26   29.76F
6HR MIN TEMP:  71; 6HR MAX TEMP:  75;

HAYS           CLEAR     64  60  87 CALM      29.75S
HILL CITY      CLEAR     69  60  73 SW9       29.71F
6HR MIN TEMP:  66; 6HR MAX TEMP:  78;

RUSSELL        CLEAR     68  59  73 S12       29.72F
6HR MIN TEMP:  65; 6HR MAX TEMP:  80;

$$

KSZ061>065-074>080-084>089-221300-
SOUTHWEST KANSAS

CITY           SKY/WX    TMP DP  RH WIND       PRES   REMARKS
DODGE CITY     CLEAR     64  59  83 S7        29.80S
6HR MIN TEMP:  62; 6HR MAX TEMP:  78;

ELKHART          N/A     66  49  54 SW16        N/A
GARDEN CITY    CLEAR     64  59  83 S8        29.77F
6HR MIN TEMP:  63; 6HR MAX TEMP:  71;

GREAT BEND     PTCLDY    67  60  78 S9        29.76R
LIBERAL        CLOUDY    66  61  84 SW5       29.81S
PRATT          PTCLDY    65  56  71 S8        29.79R
6HR MIN TEMP:  65; 6HR MAX TEMP:  76;

$$

KSZ066>073-081>083-090>101-221300-
SOUTHEAST KANSAS

CITY           SKY/WX    TMP DP  RH WIND       PRES   REMARKS
CHANUTE        CLEAR     68  64  87 MISG      29.81R
6HR MIN TEMP:  65; 6HR MAX TEMP:  70;

COFFEYVILLE    CLEAR     70  67  90 E3        29.80R
6HR MIN TEMP:  67; 6HR MAX TEMP:  71;

HUTCHINSON     CLEAR     69  63  81 S9        29.75F
6HR MIN TEMP:  67; 6HR MAX TEMP:  77;

MEDICINE LODGE   N/A     69  58  67 SE9       29.76S
NEWTON         CLEAR     68  63  84 S12       29.77F
PARSONS        CLEAR     70  65  84 SE3       29.81S
6HR MIN TEMP:  66; 6HR MAX TEMP:  72;

WICHITA INTL   PTCLDY    68  65  90 SE9       29.76F
6HR MIN TEMP:  68; 6HR MAX TEMP:  75;

WICHITA JABRA  CLEAR     68  65  90 S8        29.77F
6HR MIN TEMP:  67; 6HR MAX TEMP:  74;

WICHITA MCCONL CLEAR     69  64  84 S9        29.77F
WINFIELD       CLEAR     69  65  86 SE3       29.79S
6HR MIN TEMP:  67; 6HR MAX TEMP:  72;

$$

KSZ007>012-019>026-033>040-048>060-102>105-221300-
NORTHEAST KANSAS

CITY           SKY/WX    TMP DP  RH WIND       PRES   REMARKS
CONCORDIA      CLOUDY    72  62  71 S21G30    29.70F
6HR MIN TEMP:  72; 6HR MAX TEMP:  81; 6HR PCP: TRACE;

EMPORIA        CLEAR     66  64  93 SE8       29.79F
6HR MIN TEMP:  64; 6HR MAX TEMP:  72;

LAWRENCE       MOSUNNY   69  67  93 SE6       29.78F
6HR MIN TEMP:  67; 6HR MAX TEMP:  75;

MANHATTAN      CLOUDY    73  63  70 SW6       29.76S
6HR MIN TEMP:  73; 6HR MAX TEMP:  80;

MARYSVILLE     MOCLDY    72  61  68 S10G16    29.71F
OLATHE IND     SUNNY     69  64  84 S9        29.81F
6HR MIN TEMP:  67; 6HR MAX TEMP:  73;

OLATHE EXE     SUNNY     68  66  93 S10       29.80F
6HR MIN TEMP:  66; 6HR MAX TEMP:  73;

SALINA         CLOUDY    74  63  68 S14       29.73R
6HR MIN TEMP:  73; 6HR MAX TEMP:  81; 6HR PCP: TRACE;

TOPEKA BILLARD MOSUNNY   71  66  84 SE8       29.76F
6HR MIN TEMP:  68; 6HR MAX TEMP:  76;

TOPEKA FORBES  CLOUDY    71  65  81 S9        29.77F
6HR MIN TEMP:  70; 6HR MAX TEMP:  75;

$$




USA.gov is the U.S. government's official web portal to all federal, state and local government web resources and services.